• In Portugal
  • List of Countries
  • For 7 days
  • Water Temperature
  • Satellite Maps
  • Weather Map
  • Weather Widgets
  • user-avatar
    Login

    Hourly Weather La Condamine

    Today, 23 October, Monday

    Time Temperature Precipitation Wind Pressure Humidity
    00:00 +11°C° 0 mm 4 mps 745 mmHg 36%
    01:00 +11°C° 0 mm 4 mps 745 mmHg 34%
    02:00 +11°C° 0 mm 3 mps 745 mmHg 33%
    03:00 +11°C° 0 mm 3 mps 745 mmHg 31%
    04:00 +11°C° 0 mm 3 mps 745 mmHg 30%
    05:00 +11°C° 0 mm 3 mps 746 mmHg 29%
    06:00 +11°C° 0 mm 3 mps 746 mmHg 28%
    07:00 +14°C° 0 mm 3 mps 746 mmHg 26%
    08:00 +17°C° 0 mm 2 mps 746 mmHg 23%
    09:00 +20°C° 0 mm 2 mps 746 mmHg 21%
    10:00 +21°C° 0 mm 2 mps 746 mmHg 20%
    11:00 +22°C° 0 mm 3 mps 746 mmHg 20%
    12:00 +24°C° 0 mm 3 mps 746 mmHg 20%
    13:00 +24°C° 0 mm 3 mps 746 mmHg 21%
    14:00 +22°C° 0 mm 3 mps 746 mmHg 23%
    15:00 +21°C° 0 mm 3 mps 745 mmHg 24%
    16:00 +19°C° 0 mm 3 mps 746 mmHg 28%
    17:00 +17°C° 0 mm 2 mps 746 mmHg 32%
    18:00 +15°C° 0 mm 2 mps 746 mmHg 35%
    19:00 +15°C° 0 mm 2 mps 747 mmHg 33%
    20:00 +15°C° 0 mm 2 mps 747 mmHg 31%
    21:00 +14°C° 0 mm 2 mps 747 mmHg 28%
    22:00 +14°C° 0 mm 2 mps 748 mmHg 28%
    23:00 +14°C° 0 mm 2 mps 748 mmHg 27%

    Tomorrow, 24 October, Tuesday

    Time Temperature Precipitation Wind Pressure Humidity
    00:00 +14°C° 0 mm 2 mps 748 mmHg 26%
    01:00 +14°C° 0 mm 2 mps 748 mmHg 27%
    02:00 +14°C° 0 mm 2 mps 748 mmHg 27%
    03:00 +14°C° 0 mm 2 mps 748 mmHg 27%
    04:00 +14°C° 0 mm 2 mps 748 mmHg 27%
    05:00 +14°C° 0 mm 2 mps 749 mmHg 27%
    06:00 +14°C° 0 mm 2 mps 749 mmHg 28%
    07:00 +18°C° 0 mm 1 mps 749 mmHg 26%
    08:00 +21°C° 0 mm 1 mps 750 mmHg 24%
    09:00 +21°C° 0 mm 0 mps 750 mmHg 22%
    10:00 +24°C° 0 mm 1 mps 750 mmHg 22%
    11:00 +25°C° 0 mm 1 mps 750 mmHg 22%
    12:00 +25°C° 0 mm 2 mps 750 mmHg 22%
    13:00 +25°C° 0 mm 2 mps 750 mmHg 24%
    14:00 +24°C° 0 mm 2 mps 750 mmHg 27%
    15:00 +24°C° 0 mm 3 mps 749 mmHg 30%
    16:00 +21°C° 0 mm 3 mps 750 mmHg 35%
    17:00 +18°C° 0 mm 3 mps 750 mmHg 41%
    18:00 +16°C° 0 mm 3 mps 750 mmHg 46%
    19:00 +16°C° 0 mm 3 mps 751 mmHg 45%
    20:00 +16°C° 0 mm 2 mps 751 mmHg 43%
    21:00 +16°C° 0 mm 2 mps 751 mmHg 42%
    22:00 +16°C° 0 mm 2 mps 751 mmHg 41%
    23:00 +16°C° 0 mm 2 mps 752 mmHg 40%

    Day after tomorrow, 25 October, Wednesday

    Time Temperature Precipitation Wind Pressure Humidity
    00:00 +16°C° 0 mm 1 mps 752 mmHg 39%
    01:00 +16°C° 0 mm 2 mps 752 mmHg 39%
    02:00 +16°C° 0 mm 2 mps 752 mmHg 39%
    03:00 +16°C° 0 mm 2 mps 752 mmHg 38%
    04:00 +16°C° 0 mm 2 mps 752 mmHg 38%
    05:00 +16°C° 0 mm 2 mps 752 mmHg 38%
    06:00 +15°C° 0 mm 2 mps 752 mmHg 38%
    07:00 +18°C° 0 mm 2 mps 753 mmHg 34%
    08:00 +22°C° 0 mm 1 mps 753 mmHg 31%
    09:00 +24°C° 0 mm 1 mps 753 mmHg 28%
    10:00 +25°C° 0 mm 1 mps 753 mmHg 28%
    11:00 +26°C° 0 mm 1 mps 753 mmHg 28%
    12:00 +26°C° 0 mm 2 mps 753 mmHg 28%
    13:00 +26°C° 0 mm 1 mps 753 mmHg 31%
    14:00 +25°C° 0 mm 1 mps 753 mmHg 34%
    15:00 +24°C° 0 mm 1 mps 753 mmHg 36%
    16:00 +22°C° 0 mm 1 mps 753 mmHg 41%
    17:00 +20°C° 0 mm 1 mps 753 mmHg 47%
    18:00 +18°C° 0 mm 1 mps 754 mmHg 52%
    19:00 +18°C° 0 mm 1 mps 754 mmHg 50%
    20:00 +18°C° 0 mm 1 mps 754 mmHg 49%
    21:00 +17°C° 0 mm 2 mps 754 mmHg 48%
    22:00 +18°C° 0 mm 1 mps 754 mmHg 48%
    23:00 +18°C° 0 mm 1 mps 755 mmHg 48%

    26 October, Thursday

    Time Temperature Precipitation Wind Pressure Humidity
    00:00 +18°C° 0 mm 1 mps 755 mmHg 48%
    01:00 +18°C° 0 mm 1 mps 754 mmHg 48%
    02:00 +18°C° 0 mm 1 mps 754 mmHg 47%
    03:00 +18°C° 0 mm 1 mps 754 mmHg 47%
    04:00 +18°C° 0 mm 1 mps 754 mmHg 47%
    05:00 +18°C° 0 mm 1 mps 754 mmHg 46%
    06:00 +18°C° 0 mm 1 mps 754 mmHg 46%
    07:00 +20°C° 0 mm 1 mps 754 mmHg 41%
    08:00 +23°C° 0 mm 1 mps 755 mmHg 36%
    09:00 +25°C° 0 mm 1 mps 755 mmHg 31%
    10:00 +26°C° 0 mm 2 mps 755 mmHg 30%
    11:00 +27°C° 0 mm 2 mps 755 mmHg 29%
    12:00 +28°C° 0 mm 3 mps 754 mmHg 27%
    13:00 +27°C° 0 mm 3 mps 754 mmHg 30%
    14:00 +26°C° 0 mm 3 mps 754 mmHg 33%
    15:00 +26°C° 0 mm 3 mps 754 mmHg 35%
    16:00 +24°C° 0 mm 3 mps 754 mmHg 42%
    17:00 +20°C° 0 mm 3 mps 754 mmHg 48%
    18:00 +18°C° 0 mm 3 mps 754 mmHg 54%
    19:00 +18°C° 0 mm 3 mps 754 mmHg 53%
    20:00 +18°C° 0 mm 3 mps 754 mmHg 52%
    21:00 +18°C° 0 mm 3 mps 754 mmHg 50%
    22:00 +18°C° 0 mm 3 mps 753 mmHg 50%
    23:00 +18°C° 0 mm 3 mps 753 mmHg 50%

    27 October, Friday

    Time Temperature Precipitation Wind Pressure Humidity
    00:00 +18°C° 0 mm 3 mps 753 mmHg 50%
    01:00 +18°C° 0 mm 3 mps 752 mmHg 50%
    02:00 +18°C° 0 mm 3 mps 752 mmHg 49%
    03:00 +18°C° 0 mm 2 mps 751 mmHg 49%
    04:00 +17°C° 0 mm 2 mps 751 mmHg 48%
    05:00 +17°C° 0 mm 2 mps 751 mmHg 48%
    06:00 +17°C° 0 mm 2 mps 750 mmHg 47%
    07:00 +20°C° 0 mm 2 mps 750 mmHg 43%
    08:00 +23°C° 0 mm 2 mps 750 mmHg 39%
    09:00 +26°C° 0 mm 1 mps 750 mmHg 35%
    10:00 +27°C° 0 mm 2 mps 749 mmHg 34%
    11:00 +28°C° 0 mm 2 mps 748 mmHg 34%
    12:00 +29°C° 0 mm 2 mps 748 mmHg 33%
    13:00 +28°C° 0 mm 2 mps 747 mmHg 37%
    14:00 +27°C° 0 mm 2 mps 746 mmHg 40%
    15:00 +26°C° 0 mm 2 mps 746 mmHg 44%
    16:00 +24°C° 0 mm 2 mps 745 mmHg 49%
    17:00 +21°C° 0 mm 3 mps 745 mmHg 55%
    18:00 +19°C° 0 mm 3 mps 745 mmHg 60%
    19:00 +19°C° 0 mm 3 mps 745 mmHg 57%
    20:00 +18°C° 0 mm 3 mps 745 mmHg 54%
    21:00 +18°C° 0 mm 3 mps 745 mmHg 51%
    22:00 +18°C° 0 mm 3 mps 745 mmHg 50%
    23:00 +18°C° 0 mm 3 mps 745 mmHg 49%

    28 October, Saturday

    Time Temperature Precipitation Wind Pressure Humidity
    00:00 +17°C° 0 mm 3 mps 745 mmHg 47%
    01:00 +17°C° 0 mm 3 mps 745 mmHg 47%
    02:00 +17°C° 0 mm 3 mps 745 mmHg 46%
    03:00 +17°C° 0 mm 3 mps 745 mmHg 46%
    04:00 +17°C° 0 mm 3 mps 746 mmHg 47%
    05:00 +16°C° 0 mm 3 mps 746 mmHg 49%
    06:00 +16°C° 0 mm 3 mps 746 mmHg 51%
    07:00 +18°C° 0 mm 3 mps 747 mmHg 46%
    08:00 +20°C° 0 mm 2 mps 747 mmHg 41%
    09:00 +24°C° 0 mm 2 mps 747 mmHg 36%
    10:00 +24°C° 0 mm 2 mps 747 mmHg 35%
    11:00 +25°C° 0 mm 2 mps 747 mmHg 35%
    12:00 +25°C° 0 mm 2 mps 747 mmHg 34%
    13:00 +25°C° 0 mm 2 mps 746 mmHg 38%
    14:00 +24°C° 0 mm 2 mps 746 mmHg 41%
    15:00 +23°C° 0 mm 2 mps 745 mmHg 44%
    16:00 +20°C° 0 mm 2 mps 745 mmHg 51%
    17:00 +18°C° 0 mm 2 mps 745 mmHg 58%
    18:00 +17°C° 0 mm 2 mps 745 mmHg 65%
    19:00 +17°C° 0 mm 2 mps 745 mmHg 61%
    20:00 +17°C° 0 mm 2 mps 745 mmHg 57%
    21:00 +17°C° 0 mm 2 mps 745 mmHg 53%
    22:00 +17°C° 0 mm 2 mps 745 mmHg 50%
    23:00 +17°C° 0 mm 2 mps 745 mmHg 46%

    29 October, Sunday

    Time Temperature Precipitation Wind Pressure Humidity
    00:00 +17°C° 0 mm 2 mps 744 mmHg 43%
    01:00 +17°C° 0 mm 2 mps 744 mmHg 41%
    02:00 +17°C° 0 mm 2 mps 744 mmHg 40%
    03:00 +17°C° 0 mm 2 mps 744 mmHg 38%
    04:00 +17°C° 0 mm 2 mps 744 mmHg 37%
    05:00 +17°C° 0 mm 2 mps 744 mmHg 36%
    06:00 +16°C° 0 mm 2 mps 744 mmHg 35%
    07:00 +20°C° 0 mm 1 mps 744 mmHg 33%
    08:00 +22°C° 0 mm 1 mps 744 mmHg 31%
    09:00 +24°C° 0 mm 1 mps 745 mmHg 29%
    10:00 +25°C° 0 mm 1 mps 745 mmHg 30%
    11:00 +25°C° 0 mm 1 mps 745 mmHg 31%
    12:00 +26°C° 0 mm 2 mps 745 mmHg 32%
    13:00 +25°C° 0 mm 2 mps 744 mmHg 37%
    14:00 +24°C° 0 mm 2 mps 744 mmHg 42%
    15:00 +23°C° 0 mm 2 mps 744 mmHg 46%
    16:00 +21°C° 0 mm 1 mps 744 mmHg 54%
    17:00 +19°C° 0 mm 1 mps 745 mmHg 63%
    18:00 +16°C° 0 mm 1 mps 745 mmHg 71%
    19:00 +16°C° 0 mm 1 mps 745 mmHg 68%
    20:00 +16°C° 0 mm 1 mps 746 mmHg 65%
    21:00 +16°C° 0 mm 1 mps 746 mmHg 63%
    22:00 +15°C° 0 mm 1 mps 746 mmHg 61%
    23:00 +15°C° 0 mm 1 mps 746 mmHg 60%
    Show more